When you browse on this site, cookies collect data to enhance your experience and personalize the content and advertising you see.
Visit our Privacy Policy to learn more. By continuing to use the site, you agree to this use of cookies and data.
  • In Hungary
  • List of Countries
  • For 7 days
  • Water Temperature
  • Satellite Maps
  • Weather Map
  • News
  • Weather Widgets
  • user-avatar
    Login

    Hourly Weather Agoura

    Today, 25 June, Tuesday

    Time Temperature Precipitation Wind Pressure Humidity
    00:00 +18°C° 0 mm 1 mps 734 mmHg 86%
    01:00 +18°C° 0 mm 1 mps 734 mmHg 87%
    02:00 +16°C° 0 mm 0 mps 734 mmHg 87%
    03:00 +15°C° 0 mm 0 mps 733 mmHg 88%
    04:00 +15°C° 0 mm 0 mps 733 mmHg 88%
    05:00 +16°C° 0 mm 0 mps 734 mmHg 86%
    06:00 +18°C° 0 mm 1 mps 734 mmHg 84%
    07:00 +19°C° 0 mm 1 mps 734 mmHg 81%
    08:00 +20°C° 0 mm 1 mps 734 mmHg 75%
    09:00 +20°C° 0 mm 2 mps 734 mmHg 69%
    10:00 +23°C° 0 mm 2 mps 735 mmHg 62%
    11:00 +22°C° 0 mm 3 mps 735 mmHg 61%
    12:00 +24°C° 0 mm 3 mps 734 mmHg 60%
    13:00 +24°C° 0 mm 3 mps 734 mmHg 59%
    14:00 +24°C° 0 mm 3 mps 734 mmHg 59%
    15:00 +24°C° 0 mm 3 mps 734 mmHg 59%
    16:00 +24°C° 0 mm 3 mps 734 mmHg 59%
    17:00 +21°C° 0 mm 2 mps 734 mmHg 64%
    18:00 +20°C° 0 mm 2 mps 734 mmHg 69%
    19:00 +19°C° 0 mm 2 mps 734 mmHg 75%
    20:00 +19°C° 0 mm 1 mps 735 mmHg 78%
    21:00 +18°C° 0 mm 1 mps 735 mmHg 81%
    22:00 +16°C° 0 mm 0 mps 736 mmHg 84%
    23:00 +15°C° 0 mm 0 mps 735 mmHg 85%

    Tomorrow, 26 June, Wednesday

    Time Temperature Precipitation Wind Pressure Humidity
    00:00 +15°C° 0 mm 0 mps 735 mmHg 85%
    01:00 +15°C° 0 mm 0 mps 735 mmHg 86%
    02:00 +14°C° 0 mm 0 mps 735 mmHg 87%
    03:00 +14°C° 0 mm 0 mps 735 mmHg 88%
    04:00 +14°C° 0 mm 0 mps 735 mmHg 88%
    05:00 +16°C° 0 mm 1 mps 735 mmHg 84%
    06:00 +18°C° 0 mm 1 mps 735 mmHg 80%
    07:00 +19°C° 0 mm 1 mps 736 mmHg 77%
    08:00 +19°C° 0 mm 2 mps 736 mmHg 70%
    09:00 +21°C° 0 mm 2 mps 736 mmHg 64%
    10:00 +22°C° 0 mm 3 mps 736 mmHg 58%
    11:00 +22°C° 0 mm 3 mps 737 mmHg 56%
    12:00 +24°C° 0 mm 3 mps 737 mmHg 54%
    13:00 +25°C° 0 mm 3 mps 737 mmHg 53%
    14:00 +24°C° 0 mm 3 mps 736 mmHg 52%
    15:00 +24°C° 0 mm 3 mps 736 mmHg 52%
    16:00 +24°C° 0 mm 3 mps 736 mmHg 52%
    17:00 +22°C° 0 mm 3 mps 736 mmHg 57%
    18:00 +21°C° 0 mm 2 mps 736 mmHg 62%
    19:00 +19°C° 0 mm 2 mps 736 mmHg 67%
    20:00 +20°C° 0 mm 1 mps 736 mmHg 71%
    21:00 +19°C° 0 mm 1 mps 737 mmHg 74%
    22:00 +16°C° 0 mm 0 mps 737 mmHg 78%
    23:00 +16°C° 0 mm 0 mps 737 mmHg 78%

    Day after tomorrow, 27 June, Thursday

    Time Temperature Precipitation Wind Pressure Humidity
    00:00 +18°C° 0 mm 1 mps 736 mmHg 79%
    01:00 +18°C° 0 mm 1 mps 736 mmHg 79%
    02:00 +16°C° 0 mm 1 mps 736 mmHg 80%
    03:00 +16°C° 0 mm 1 mps 736 mmHg 82%
    04:00 +16°C° 0 mm 1 mps 736 mmHg 83%
    05:00 +18°C° 0 mm 1 mps 736 mmHg 78%
    06:00 +19°C° 0 mm 1 mps 737 mmHg 73%
    07:00 +20°C° 0 mm 1 mps 737 mmHg 68%
    08:00 +22°C° 0 mm 1 mps 737 mmHg 61%
    09:00 +23°C° 0 mm 2 mps 737 mmHg 55%
    10:00 +25°C° 0 mm 2 mps 737 mmHg 49%
    11:00 +25°C° 0 mm 3 mps 737 mmHg 48%
    12:00 +26°C° 0 mm 3 mps 737 mmHg 47%
    13:00 +26°C° 0 mm 4 mps 737 mmHg 46%
    14:00 +26°C° 0 mm 4 mps 737 mmHg 46%
    15:00 +26°C° 0 mm 4 mps 736 mmHg 45%
    16:00 +26°C° 0 mm 4 mps 736 mmHg 45%
    17:00 +24°C° 0 mm 3 mps 736 mmHg 48%
    18:00 +22°C° 0 mm 3 mps 736 mmHg 50%
    19:00 +21°C° 0 mm 2 mps 736 mmHg 53%
    20:00 +20°C° 0 mm 2 mps 736 mmHg 56%
    21:00 +20°C° 0 mm 1 mps 736 mmHg 59%
    22:00 +20°C° 0 mm 1 mps 737 mmHg 62%
    23:00 +19°C° 0 mm 1 mps 737 mmHg 63%

    28 June, Friday

    Time Temperature Precipitation Wind Pressure Humidity
    00:00 +19°C° 0 mm 1 mps 736 mmHg 64%
    01:00 +19°C° 0 mm 1 mps 736 mmHg 65%
    02:00 +18°C° 0 mm 1 mps 736 mmHg 68%
    03:00 +18°C° 0 mm 1 mps 736 mmHg 71%
    04:00 +16°C° 0 mm 1 mps 736 mmHg 75%
    05:00 +19°C° 0 mm 1 mps 736 mmHg 70%
    06:00 +20°C° 0 mm 1 mps 737 mmHg 65%
    07:00 +21°C° 0 mm 1 mps 737 mmHg 60%
    08:00 +23°C° 0 mm 2 mps 737 mmHg 54%
    09:00 +24°C° 0 mm 2 mps 737 mmHg 47%
    10:00 +26°C° 0 mm 3 mps 737 mmHg 41%
    11:00 +26°C° 0 mm 3 mps 737 mmHg 41%
    12:00 +26°C° 0 mm 3 mps 737 mmHg 42%
    13:00 +27°C° 0 mm 3 mps 737 mmHg 42%
    14:00 +27°C° 0 mm 3 mps 737 mmHg 41%
    15:00 +27°C° 0 mm 4 mps 736 mmHg 40%
    16:00 +27°C° 0 mm 4 mps 736 mmHg 39%
    17:00 +26°C° 0 mm 3 mps 736 mmHg 41%
    18:00 +24°C° 0 mm 3 mps 736 mmHg 43%
    19:00 +23°C° 0 mm 2 mps 736 mmHg 46%
    20:00 +23°C° 0 mm 2 mps 737 mmHg 48%
    21:00 +22°C° 0 mm 1 mps 737 mmHg 49%
    22:00 +21°C° 0 mm 1 mps 737 mmHg 51%
    23:00 +21°C° 0 mm 1 mps 737 mmHg 53%

    29 June, Saturday

    Time Temperature Precipitation Wind Pressure Humidity
    00:00 +20°C° 0 mm 1 mps 737 mmHg 55%
    01:00 +20°C° 0 mm 1 mps 737 mmHg 57%
    02:00 +19°C° 0 mm 1 mps 737 mmHg 58%
    03:00 +19°C° 0 mm 1 mps 737 mmHg 59%
    04:00 +19°C° 0 mm 1 mps 737 mmHg 59%
    05:00 +20°C° 0 mm 1 mps 737 mmHg 54%
    06:00 +22°C° 0 mm 1 mps 737 mmHg 48%
    07:00 +23°C° 0 mm 1 mps 737 mmHg 42%
    08:00 +25°C° 0 mm 1 mps 738 mmHg 38%
    09:00 +26°C° 0 mm 2 mps 738 mmHg 35%
    10:00 +28°C° 0 mm 2 mps 738 mmHg 31%
    11:00 +28°C° 0 mm 3 mps 738 mmHg 32%
    12:00 +29°C° 0 mm 3 mps 738 mmHg 32%
    13:00 +29°C° 0 mm 4 mps 737 mmHg 33%
    14:00 +29°C° 0 mm 4 mps 737 mmHg 33%
    15:00 +29°C° 0 mm 4 mps 736 mmHg 33%
    16:00 +29°C° 0 mm 4 mps 736 mmHg 33%
    17:00 +27°C° 0 mm 3 mps 736 mmHg 35%
    18:00 +26°C° 0 mm 3 mps 736 mmHg 38%
    19:00 +25°C° 0 mm 2 mps 736 mmHg 40%
    20:00 +24°C° 0 mm 2 mps 737 mmHg 42%
    21:00 +23°C° 0 mm 1 mps 737 mmHg 44%
    22:00 +22°C° 0 mm 1 mps 737 mmHg 45%
    23:00 +21°C° 0 mm 1 mps 737 mmHg 48%

    30 June, Sunday

    Time Temperature Precipitation Wind Pressure Humidity
    00:00 +21°C° 0 mm 1 mps 737 mmHg 51%
    01:00 +21°C° 0 mm 1 mps 736 mmHg 53%
    02:00 +20°C° 0 mm 1 mps 736 mmHg 55%
    03:00 +20°C° 0 mm 1 mps 736 mmHg 56%
    04:00 +18°C° 0 mm 0 mps 736 mmHg 58%
    05:00 +19°C° 0 mm 0 mps 736 mmHg 52%
    06:00 +21°C° 0 mm 0 mps 737 mmHg 46%
    07:00 +23°C° 0 mm 0 mps 737 mmHg 40%
    08:00 +26°C° 0 mm 1 mps 737 mmHg 36%
    09:00 +28°C° 0 mm 1 mps 737 mmHg 32%
    10:00 +30°C° 0 mm 2 mps 737 mmHg 28%
    11:00 +30°C° 0 mm 3 mps 737 mmHg 28%
    12:00 +31°C° 0 mm 3 mps 737 mmHg 28%
    13:00 +32°C° 0 mm 4 mps 736 mmHg 29%
    14:00 +32°C° 0 mm 4 mps 736 mmHg 28%
    15:00 +30°C° 0 mm 4 mps 735 mmHg 28%
    16:00 +30°C° 0 mm 4 mps 735 mmHg 27%
    17:00 +29°C° 0 mm 3 mps 735 mmHg 30%
    18:00 +27°C° 0 mm 3 mps 735 mmHg 33%
    19:00 +26°C° 0 mm 2 mps 735 mmHg 36%
    20:00 +25°C° 0 mm 2 mps 735 mmHg 37%
    21:00 +24°C° 0 mm 1 mps 735 mmHg 39%
    22:00 +24°C° 0 mm 1 mps 736 mmHg 41%
    23:00 +23°C° 0 mm 1 mps 735 mmHg 45%
    Show more